AZERSPACE 2 (IS-38)

Last updated on Sat Aug 15 2026 00:03:01 GMT+0000 (Coordinated Universal Time)

1 43632U 18074A 26226.57689610 .00000000 00000+0 00000+0 0 9996 2 43632 0.0226 110.7687 0001429 31.8783 73.1406 1.00269494 29036
UTC large
Height (km)
Speed (km/s)
/
Latitude / Longitude
Inclination (degrees)
Orbital Period (minutes)
Azimuth
Elevation
Range (km)
Doppler Factor

Next 0 passes for location: London (51.5072 / 0.1276)

No passes found over London.
AZERSPACE 2 (IS-38)